Regional Weather Roundup
Issued by NWS Bismarck, ND

Home | Current Version | Previous Version | Text Only | Print | Product List | Glossary On
Versions: 1 2 3 4 5 6 7 8 9 10 11 12 13 14 15 16 17 18 19 20 21 22 23 24 25 26 27 28 29 30 31 32 33 34 35 36 37 38 39 40 41 42 43 44 45 46 47 48 49 50
000
ASUS43 KBIS 231010
RWRBIS

NWR BROADCAST TEXT
NATIONAL WEATHER SERVICE BISMARCK ND
400 AM CST THU NOV 23 2017

NOTE: "FAIR" INDICATES FEW OR NO CLOUDS BELOW 12,000 FEET WITH NO
SIGNIFICANT WEATHER AND/OR OBSTRUCTIONS TO VISIBILITY.


CITY           SKY/WX    TMP DP  RH WIND       PRES   REMARKS
WILLISTON      CLOUDY    25  23  92 S3        29.81F
MINOT          CLOUDY    29  25  85 S10       29.80F WCI  20
MINOT AFB      CLOUDY    21  19  91 CALM      29.80F
BISMARCK       CLOUDY    26  22  84 E3        29.91F
DICKINSON      CLEAR     42  38  85 W15       29.85F
GARRISON         N/A     27  26  96 SE6       29.85F
HETTINGER ARPT CLEAR     34  31  88 W5        29.93F
JAMESTOWN      CLOUDY    25  22  88 SW6       29.91F WCI  18
CARRINGTON     FAIR      25  23  93 SW6       29.91F WCI  18
HAZEN          FAIR      19  19 100 CALM      29.88F
LINTON           N/A     21  18  86 E7        29.94F WCI  13
MANDAN         FAIR      25  25 100 S9        29.89F WCI  15
OAKES          FOG       25  25 100 NW6       29.96F VSB 1/2 WCI  18
RUGBY          FAIR      19  19 100 S5        29.85F WCI  13
STANLEY        FAIR      23  25 100 SW3       29.82F
TIOGA          PTSUNNY   21  21 100 CALM      29.81F
WATFORD CITY   FAIR      27  27 100 SW5       29.82F
$$

CITY           SKY/WX    TMP DP  RH WIND       PRES   REMARKS
GRAND FORKS    CLOUDY    25  24  96 SW5       29.92F WCI  19
GRAND FORKS AF CLOUDY    26  24  92 S5        29.91F
DEVILS LAKE    CLOUDY    27  24  89 SW8       29.88F WCI  19
FARGO          CLOUDY    25  19  78 S5        29.95F WCI  19
CANDO          PTSUNNY   23  23 100 SW8       29.88F WCI  14
CAVALIER       FAIR      12  12 100 S3        29.89F
GRAFTON        CLOUDY    18  18 100 S5        29.92F WCI  11
GWINNER          N/A     25  21  86 SW7       29.95F WCI  17
LANGDON        CLOUDY    23  23 100 SW5       29.85F FOG     WCI  17
ROLLA          PTSUNNY   21  21 100 S3        29.84F
WALHALLA       FAIR      23  25 100 W5        29.88F WCI  17
$$

CITY           SKY/WX    TMP DP  RH WIND       PRES   REMARKS
ABERDEEN       CLOUDY    18  17  96 SW3       30.00S
MOBRIDGE       CLOUDY    30  27  88 E8        29.91F
BUFFALO          N/A     45  38  76 W10       29.88F
RAPID CITY     CLOUDY    45  36  70 W5        30.02F
GLASGOW        CLOUDY    41  37  86 CALM      29.80F
SIDNEY         CLEAR     29  28  96 CALM      29.83F
WOLF POINT     CLOUDY    26  24  92 CALM      29.81F
GLENDIVE       CLOUDY    36  34  92 S7        29.87F
MILES CITY     CLOUDY    44  40  85 S9        29.90F
BAKER          CLOUDY    46  40  79 W3        29.93F
$$

CITY           SKY/WX    TMP DP  RH WIND       PRES   REMARKS
BILLINGS       PTCLDY    53  39  59 W18       30.01F
GREAT FALLS    CLOUDY    57  37  47 SW26G35   29.90F
REGINA         CLEAR     18  16  93 SE12      29.69F WCI   5
ESTEVAN        PTCLDY    19  18  93 S6        29.76F WCI  11
$$





USA.gov is the U.S. government's official web portal to all federal, state and local government web resources and services.